YZ-1 R/B, 43650

Orbit data source: Space-Track

YZ-1 R/B, 43650 is space debris originally from a launch on Mon, 15 Oct 2018 UTC launched from the Xichang Space Center, China (XSC). Debris objects in space refer to the collection of defunct objects orbiting the Earth. Examples of debris include non-operational satellites, rocket bodies, and fragments generated from explosions, collisions, or faulty payload assembly.

Loading next visibility...
Identifier
43650, 2018-078D
Orbit
Active
Country
Flag of CNCN / PRC
Related business
Manufacturer
CALT
Mission
Spacecraft
Bus & Motor
YZ-1, Unknown motor
Mass
~2,075 kg wet, ~2,075 kg dry
Launch date (UTC)
2018-10-15 (8 years ago)
Launch vehicle
Unknown
Launch site
Xichang Space Center, China (XSC)
Object type
Payload
Rocket body
Debris
Shape & HBR
Double Cone, 2.0 m
Radar Cross Section
5.890 m², Large (>1 m²)

Expand to show TLE details & history
Last TLE update: 1 week ago

TLE from 1 week ago
0 YZ-1 R/B
1 43650U 18078D   26154.23154903 -.00000065  00000-0  00000-0 0  9999
2 43650  54.0390 309.3099 0107587  64.4654 296.6223  1.77586592 49510
Epoch: 2026-06-03T05:33Z
TLE epoch observation values (Epoch: 2026-06-03T05:33:25.836Z)
Latitude
-0.00004°
Longitude
-25.7633°
Altitude
22,290.973 km
Speed
3.738 km/s
True Right ascension
20h 37m 08s
True Declination
0° 00' 00"
Sunlit
Object was in daylight at epoch
Visualization orbit readout
Latitude
Unknown
Longitude
Unknown
Altitude
Unknown
Speed
Unknown
Apparent Right ascension
Unknown
Apparent Declination
Unknown
Sunlit
N/A
Visualization observer readout
Local Sidereal Time
22:32:08
Azimuth
Unknown
Elevation
Unknown
Doppler factor
Unknown
Orbital elements
Apogee altitude
22,736.399 km
Perigee altitude
22,116.598 km
Semi-major axis
28,804.636 km
Eccentricity
0.01076
Inclination
54.039°
RAAN
309.3099°
Arg. of periapsis
64.4654°
True anomaly
295.51354°
Mean anomaly
296.6223°
Eccentric anomaly
296.06858°
Mean motion
0.44397 °/min
Orbital period
810.87 mins
BSTAR
0
Loading maneuver chart data...
Computing Atmospheric mass density...
Loading historical data...
Loading historical data...
Loading historical data...
Loading historical data...
Loading historical data...
Loading historical data...
Loading historical data...
Other satellites on launch #78 in the year 2018 (2018-10-15 UTC)

Documentation

Showing up to 5 results
|